WA7BMK Weather Reports


Display with metric or nautical units.
time (UTC)temp
F
wind
direction
speed
MPH
gust
MPH
rain 1hr
in
rain 24hr
in
rain mn
in
humidity
%
barometer
mb
20260903004542 60 360 3.0 12.0 0.08 0.25 0.25 88 1005.6
20260903003044 59 360 3.0 10.0 0.08 0.25 0.25 90 1005.7
20260903001549 57 176 3.0 10.0 0.08 0.25 0.25 88 1005.6
20260903000043 59 360 1.0 5.0 0.05 0.22 0.22 87 1005.7
20260902234543 59 0 0.0 4.0 0.00 0.17 0.17 85 1004.8
20260902233039 59 360 1.0 7.0 0.00 0.17 0.17 86 1004.8
20260902231546 59 360 1.0 4.0 0.01 0.17 0.17 88 1004.8
20260902230050 59 360 1.0 5.0 0.03 0.17 0.17 88 1004.8
20260902224537 58 360 1.0 5.0 0.05 0.17 0.17 88 1004.7
20260902223042 58 146 2.0 4.0 0.06 0.17 0.17 88 1004.7
20260902221540 59 360 3.0 9.0 0.07 0.16 0.16 87 1004.8
20260902220043 59 360 2.0 6.0 0.06 0.14 0.14 87 1004.8
20260902214544 59 0 0.0 3.0 0.05 0.12 0.12 87 1004.8
20260902213038 59 360 0.0 3.0 0.05 0.11 0.11 86 1005.0
20260902211540 59 360 1.0 3.0 0.04 0.09 0.09 84 1005.1
20260902210044 60 0 1.0 3.0 0.03 0.08 0.08 82 1005.0
20260902204543 60 360 0.0 5.0 0.02 0.07 0.07 81 1005.1
20260902203042 61 0 0.0 4.0 0.01 0.06 0.06 79 1005.1
20260902201552 61 360 2.0 10.0 0.00 0.05 0.05 78 1005.1
20260902200047 62 360 2.0 8.0 0.01 0.05 0.05 77 1005.3
20260902194551 62 360 2.0 10.0 0.03 0.05 0.05 79 1005.4
20260902193044 61 0 1.0 6.0 0.05 0.05 0.05 82 1005.6
20260902191541 61 360 2.0 8.0 0.05 0.05 0.05 83 1005.7
20260902190048 60 360 2.0 10.0 0.04 0.04 0.04 81 1005.7
20260902184545 63 360 1.0 11.0 0.02 0.02 0.02 74 1005.9
20260902183044 67 360 3.0 11.0 0.00 0.00 0.00 59 1005.6
20260902181543 67 360 5.0 13.0 0.00 0.00 0.00 59 1005.7
20260902180042 67 360 3.0 9.0 0.00 0.00 0.00 61 1005.8
20260902174543 66 136 3.0 11.0 0.00 0.00 0.00 62 1005.8
20260902173045 65 174 2.0 9.0 0.00 0.00 0.00 63 1005.9
20260902171546 64 360 3.0 8.0 0.00 0.00 0.00 65 1006.1
20260902170043 64 360 2.0 5.0 0.00 0.00 0.00 66 1006.2
20260902164540 64 360 2.0 6.0 0.00 0.00 0.00 67 1006.5
20260902163045 63 360 2.0 6.0 0.00 0.00 0.00 67 1006.5
20260902161544 62 360 2.0 5.0 0.00 0.00 0.00 69 1006.6
20260902160043 62 0 1.0 5.0 0.00 0.00 0.00 72 1006.8
20260902154538 62 360 0.0 3.0 0.00 0.00 0.00 73 1007.0
20260902153046 62 360 2.0 5.0 0.00 0.00 0.00 72 1007.1
20260902151546 61 360 1.0 4.0 0.00 0.00 0.00 73 1007.2
20260902150043 61 360 2.0 4.0 0.00 0.00 0.00 74 1007.3
20260902144542 59 360 0.0 3.0 0.00 0.00 0.00 78 1007.6
20260902143041 58 0 0.0 0.0 0.00 0.00 0.00 80 1007.6
20260902141541 58 103 0.0 2.0 0.00 0.00 0.00 81 1007.9
20260902140043 57 0 0.0 0.0 0.00 0.00 0.00 81 1007.8
20260902134543 57 0 0.0 0.0 0.00 0.00 0.00 80 1007.9
20260902133042 57 0 0.0 0.0 0.00 0.00 0.00 80 1007.8
20260902131542 57 0 0.0 2.0 0.00 0.00 0.00 82 1007.9
20260902130045 56 0 0.0 5.0 0.00 0.00 0.00 85 1008.0
20260902124543 55 0 0.0 0.0 0.00 0.00 0.00 87 1008.3
20260902123041 55 0 0.0 0.0 0.00 0.00 0.00 86 1008.4
20260902121548 56 0 0.0 0.0 0.00 0.00 0.00 85 1008.4
20260902120044 56 0 0.0 0.0 0.00 0.00 0.00 85 1008.6
20260902114544 57 0 0.0 0.0 0.00 0.00 0.00 84 1008.7
20260902113049 57 0 0.0 1.0 0.00 0.00 0.00 85 1008.8
20260902111540 57 0 0.0 0.0 0.00 0.00 0.00 85 1008.9
20260902110042 58 0 0.0 0.0 0.00 0.00 0.00 84 1009.0
20260902104604 58 192 0.0 1.0 0.00 0.00 0.00 84 1008.9
20260902103041 58 0 0.0 1.0 0.00 0.00 0.00 84 1009.2
20260902101538 58 0 0.0 2.0 0.00 0.00 0.00 85 1009.3
20260902094543 57 0 0.0 3.0 0.00 0.00 0.00 86 1009.4
20260902093036 58 0 0.0 0.0 0.00 0.00 0.00 86 1009.5
20260902091543 58 0 0.0 0.0 0.00 0.00 0.00 85 1009.6
20260902090042 59 209 0.0 2.0 0.00 0.00 0.00 85 1009.6
20260902084539 58 323 0.0 4.0 0.00 0.00 0.00 85 1009.8
20260902083043 59 360 0.0 4.0 0.00 0.00 0.00 85 1009.8
20260902081605 59 0 0.0 1.0 0.00 0.00 0.00 85 1010.1
20260902080054 59 0 0.0 1.0 0.00 0.00 0.00 85 1010.1
20260902074544 60 0 0.0 2.0 0.00 0.00 0.00 84 1010.3
20260902073039 60 0 0.0 1.0 0.00 0.00 0.00 84 1010.2
20260902071540 60 0 0.0 3.0 0.00 0.00 0.00 84 1010.4
20260902070045 60 360 1.0 4.0 0.00 0.00 0.00 84 1010.5
20260902064537 60 0 0.0 2.0 0.00 0.00 0.00 84 1010.4
20260902063100 60 155 0.0 3.0 0.00 0.00 0.00 84 1010.6
20260902061544 60 0 0.0 1.0 0.00 0.00 0.00 84 1010.6
20260902060054 60 360 0.0 3.0 0.00 0.00 0.00 84 1010.6
20260902054543 60 0 0.0 2.0 0.00 0.00 0.00 84 1010.8
20260902053044 61 0 0.0 2.0 0.00 0.00 0.00 83 1010.9
20260902051556 61 0 0.0 3.0 0.00 0.00 0.00 83 1010.9
20260902050039 61 360 0.0 4.0 0.00 0.00 0.00 83 1010.9
20260902044546 61 0 0.0 3.0 0.00 0.00 0.00 83 1010.9
20260902043038 61 0 0.0 4.0 0.00 0.00 0.00 84 1010.9
20260902041542 61 136 0.0 3.0 0.00 0.00 0.00 84 1011.0
20260902040037 61 0 0.0 2.0 0.00 0.00 0.00 84 1011.0
20260902034540 61 360 1.0 4.0 0.00 0.00 0.00 84 1010.9
20260902033044 60 360 1.0 5.0 0.00 0.00 0.00 85 1010.9
20260902031545 60 0 0.0 2.0 0.00 0.00 0.00 86 1010.8
20260902030039 60 0 0.0 2.0 0.00 0.00 0.00 87 1010.7
20260902024544 60 0 0.0 1.0 0.00 0.00 0.00 87 1010.7
20260902023046 60 0 0.0 4.0 0.00 0.00 0.00 86 1010.7
20260902021546 61 0 0.0 2.0 0.00 0.00 0.00 86 1010.8
20260902020050 61 360 0.0 6.0 0.00 0.00 0.00 84 1010.8
20260902014548 63 360 1.0 6.0 0.00 0.00 0.00 80 1010.8
20260902013042 65 360 3.0 9.0 0.00 0.00 0.00 73 1010.7
20260902011536 65 0 2.0 9.0 0.00 0.00 0.00 72 1010.6
20260902010040 65 360 1.0 6.0 0.00 0.00 0.00 73 1010.5